SIA37 KLAX-WSSS

Flight info

Callsign SIA37
Flight time N/A
Altitude 34000
Route SUMMR2 RIZIN DCT MQO DCT AUDIA DCT ADTIL DCT 36N140W 36N150W/N0489F360 34N160W 31N170W 30N180E/N0486F380 29N170E 27N160E 24N150E/N0484F400 21N140E 17N130E DCT JOM M767 TODAM/N0480F430 M767 TOMAN
Aircraft A359/H-SDE2E3GHIJ3J4J5LM1ORWXY/LB1D1

Departure

Time 2026-04-25 06:33
Airport Los Angeles International Airport (KLAX)

Arrival

Time N/A
Airport Singapore Changi Airport (WSSS)
Time Latitude Longitude Altitude Speed Heading
2026-04-25 05:45 33.94461 -118.41135 99 ft 0 kts 84°
2026-04-25 06:24 33.94459 -118.41152 100 ft 4 kts 84°
2026-04-25 06:25 33.94456 -118.41185 100 ft 4 kts 84°
2026-04-25 06:25 33.94454 -118.41212 99 ft 3 kts 83°
2026-04-25 06:25 33.94445 -118.41237 98 ft 4 kts 30°
2026-04-25 06:25 33.94421 -118.41244 99 ft 3 kts 353°
2026-04-25 06:26 33.94395 -118.41240 99 ft 4 kts 353°
2026-04-25 06:26 33.94388 -118.41239 99 ft 0 kts 353°
2026-04-25 06:28 33.94402 -118.41241 100 ft 5 kts 353°
2026-04-25 06:29 33.94438 -118.41246 99 ft 6 kts 353°
2026-04-25 06:29 33.94479 -118.41253 100 ft 7 kts 353°
2026-04-25 06:29 33.94540 -118.41261 100 ft 13 kts 353°
2026-04-25 06:29 33.94641 -118.41276 101 ft 15 kts 353°
2026-04-25 06:30 33.94745 -118.41292 101 ft 15 kts 352°
2026-04-25 06:30 33.94799 -118.41226 103 ft 13 kts 82°
2026-04-25 06:30 33.94814 -118.41071 103 ft 24 kts 83°
2026-04-25 06:30 33.94835 -118.40859 101 ft 25 kts 83°
2026-04-25 06:31 33.94858 -118.40649 101 ft 25 kts 82°
2026-04-25 06:31 33.94879 -118.40445 103 ft 24 kts 83°
2026-04-25 06:31 33.94900 -118.40244 104 ft 24 kts 83°
2026-04-25 06:31 33.94919 -118.40039 102 ft 25 kts 83°
2026-04-25 06:32 33.94996 -118.39915 100 ft 16 kts 358°
2026-04-25 06:32 33.95037 -118.39998 103 ft 12 kts 264°
2026-04-25 06:32 33.95004 -118.40316 106 ft 73 kts 263°
2026-04-25 06:32 33.94913 -118.41203 104 ft 138 kts 263°
2026-04-25 06:33 33.94775 -118.42566 317 ft 175 kts 262°
2026-04-25 06:33 33.94622 -118.44061 981 ft 186 kts 262°
2026-04-25 06:33 33.94441 -118.45647 1725 ft 198 kts 262°
2026-04-25 06:33 33.94276 -118.47383 2262 ft 219 kts 265°
2026-04-25 06:34 33.94207 -118.49300 2537 ft 237 kts 269°
2026-04-25 06:34 33.94173 -118.51347 2805 ft 251 kts 268°
2026-04-25 06:34 33.94049 -118.53471 3279 ft 255 kts 265°
2026-04-25 06:34 33.93878 -118.55576 3805 ft 257 kts 264°
2026-04-25 06:35 33.93701 -118.57732 4351 ft 258 kts 265°
2026-04-25 06:35 33.93527 -118.59889 4923 ft 258 kts 265°
2026-04-25 06:35 33.93354 -118.62051 5445 ft 260 kts 265°
2026-04-25 06:35 33.93182 -118.64234 5965 ft 263 kts 265°
2026-04-25 06:36 33.93014 -118.66416 6479 ft 266 kts 265°
2026-04-25 06:36 33.92841 -118.68644 7002 ft 268 kts 265°
2026-04-25 06:36 33.92665 -118.70891 7571 ft 269 kts 265°
2026-04-25 06:36 33.92489 -118.73145 8167 ft 270 kts 264°
2026-04-25 06:37 33.92313 -118.75397 8774 ft 271 kts 264°
2026-04-25 06:37 33.92136 -118.77654 9361 ft 272 kts 264°
2026-04-25 06:37 33.91958 -118.79933 9939 ft 273 kts 264°
2026-04-25 06:37 33.91779 -118.82234 10312 ft 282 kts 264°
2026-04-25 06:38 33.91728 -118.84618 10564 ft 295 kts 270°
2026-04-25 06:38 33.91794 -118.87141 10818 ft 307 kts 271°
2026-04-25 06:38 33.91879 -118.89767 11077 ft 320 kts 271°
2026-04-25 06:38 33.91964 -118.92489 11318 ft 331 kts 271°
2026-04-25 06:39 33.92050 -118.95312 11563 ft 342 kts 271°
2026-04-25 06:39 33.92138 -118.98217 11834 ft 352 kts 271°
2026-04-25 06:39 33.92451 -119.01162 12227 ft 358 kts 283°
2026-04-25 06:39 33.93394 -119.03912 12711 ft 363 kts 296°
2026-04-25 06:40 33.94704 -119.06531 13220 ft 366 kts 299°
2026-04-25 06:40 33.96066 -119.09133 13699 ft 367 kts 298°
2026-04-25 06:40 33.97429 -119.11743 14101 ft 369 kts 298°
2026-04-25 06:40 33.98800 -119.14383 14481 ft 372 kts 298°
2026-04-25 06:41 34.00193 -119.17014 14864 ft 375 kts 301°
2026-04-25 06:41 34.01950 -119.19388 15237 ft 384 kts 315°
2026-04-25 06:41 34.04086 -119.21355 15657 ft 389 kts 320°
2026-04-25 06:41 34.06299 -119.23240 16051 ft 391 kts 320°
2026-04-25 06:42 34.08510 -119.25117 16415 ft 393 kts 320°
2026-04-25 06:42 34.10752 -119.27031 16753 ft 397 kts 320°
2026-04-25 06:42 34.13014 -119.28970 17122 ft 399 kts 320°
2026-04-25 06:42 34.15283 -119.30918 17525 ft 401 kts 320°
2026-04-25 06:43 34.17562 -119.32879 17917 ft 403 kts 320°
2026-04-25 06:43 34.19857 -119.34857 18293 ft 406 kts 320°
2026-04-25 06:43 34.22163 -119.36846 18639 ft 408 kts 320°
2026-04-25 06:43 34.24459 -119.38828 18980 ft 410 kts 319°
2026-04-25 06:44 34.26785 -119.40838 19341 ft 412 kts 319°
2026-04-25 06:44 34.29128 -119.42863 19699 ft 414 kts 319°
2026-04-25 06:44 34.31481 -119.44899 20056 ft 416 kts 319°
2026-04-25 06:44 34.33843 -119.46944 20419 ft 418 kts 319°
2026-04-25 06:45 34.36214 -119.48998 20772 ft 420 kts 319°
2026-04-25 06:45 34.38595 -119.51064 21117 ft 422 kts 319°
2026-04-25 06:45 34.40894 -119.53264 21492 ft 420 kts 312°
2026-04-25 06:45 34.42939 -119.55772 21863 ft 419 kts 308°
2026-04-25 06:46 34.44879 -119.58424 22219 ft 421 kts 306°
2026-04-25 06:46 34.46767 -119.61145 22583 ft 422 kts 305°
2026-04-25 06:46 34.48638 -119.63899 23003 ft 424 kts 304°
2026-04-25 06:46 34.50518 -119.66675 23395 ft 425 kts 304°
2026-04-25 06:47 34.52407 -119.69443 23715 ft 428 kts 305°
2026-04-25 06:47 34.54323 -119.72232 24040 ft 431 kts 305°
2026-04-25 06:47 34.56225 -119.74986 24385 ft 432 kts 305°
2026-04-25 06:47 34.58165 -119.77786 24746 ft 434 kts 305°
2026-04-25 06:48 34.60110 -119.80592 25109 ft 435 kts 305°
2026-04-25 06:48 34.62062 -119.83407 25457 ft 437 kts 305°
2026-04-25 06:48 34.64023 -119.86241 25769 ft 439 kts 305°
2026-04-25 06:48 34.65991 -119.89088 26092 ft 441 kts 305°
2026-04-25 06:49 34.67965 -119.91948 26417 ft 442 kts 305°
2026-04-25 06:49 34.69943 -119.94815 26772 ft 444 kts 305°
2026-04-25 06:49 34.71930 -119.97699 27135 ft 445 kts 305°
2026-04-25 06:49 34.73924 -120.00595 27531 ft 446 kts 305°
2026-04-25 06:50 34.75917 -120.03492 27870 ft 447 kts 305°
2026-04-25 06:50 34.77885 -120.06355 28170 ft 449 kts 305°
2026-04-25 06:50 34.79896 -120.09283 28469 ft 450 kts 305°
2026-04-25 06:50 34.81909 -120.12217 28740 ft 452 kts 305°
2026-04-25 06:51 34.83933 -120.15170 28973 ft 455 kts 305°
2026-04-25 06:51 34.85966 -120.18138 29269 ft 457 kts 305°
2026-04-25 06:51 34.88009 -120.21121 29525 ft 458 kts 305°
2026-04-25 06:51 34.90046 -120.24098 29903 ft 457 kts 305°
2026-04-25 06:52 34.92082 -120.27075 30180 ft 458 kts 305°
2026-04-25 06:52 34.94100 -120.30029 30374 ft 460 kts 305°
2026-04-25 06:52 34.96140 -120.33021 30572 ft 461 kts 305°
2026-04-25 06:52 34.98187 -120.36025 30888 ft 459 kts 305°
2026-04-25 06:53 35.00228 -120.39020 31193 ft 458 kts 304°
2026-04-25 06:53 35.02266 -120.42016 31406 ft 459 kts 304°
2026-04-25 06:53 35.04306 -120.45019 31563 ft 461 kts 304°
2026-04-25 06:53 35.06344 -120.48018 31925 ft 457 kts 304°
2026-04-25 06:54 35.08370 -120.51001 32254 ft 455 kts 304°
2026-04-25 06:54 35.10391 -120.53980 32448 ft 455 kts 304°
2026-04-25 06:54 35.12389 -120.56931 32647 ft 455 kts 304°
2026-04-25 06:54 35.14404 -120.59908 32865 ft 454 kts 304°
2026-04-25 06:55 35.16419 -120.62888 33073 ft 454 kts 304°
2026-04-25 06:55 35.18309 -120.65954 33279 ft 449 kts 298°
2026-04-25 06:55 35.19878 -120.69230 33494 ft 443 kts 291°
2026-04-25 06:55 35.21065 -120.72672 33780 ft 435 kts 284°
2026-04-25 06:56 35.21851 -120.76206 33981 ft 428 kts 277°
2026-04-25 06:56 35.22207 -120.83442 34015 ft 428 kts 263°
2026-04-25 06:57 35.20926 -120.90550 34009 ft 429 kts 249°
2026-04-25 06:57 35.18119 -120.96985 33997 ft 431 kts 236°
2026-04-25 06:58 35.14409 -121.02787 34001 ft 432 kts 238°
2026-04-25 06:58 35.11399 -121.09084 34001 ft 431 kts 243°
2026-04-25 06:59 35.08614 -121.15575 34001 ft 431 kts 244°
2026-04-25 06:59 35.05879 -121.22112 34001 ft 431 kts 244°
2026-04-25 07:00 35.03146 -121.28630 34007 ft 432 kts 243°
2026-04-25 07:00 35.00386 -121.35169 34004 ft 433 kts 243°
2026-04-25 07:01 34.97632 -121.41669 34011 ft 435 kts 243°
2026-04-25 07:01 34.94847 -121.48230 34006 ft 435 kts 243°
2026-04-25 07:02 34.92058 -121.54787 34009 ft 436 kts 243°
2026-04-25 07:02 34.89255 -121.61365 34011 ft 438 kts 243°
2026-04-25 07:03 34.86441 -121.67957 34013 ft 439 kts 243°
2026-04-25 07:03 34.83621 -121.74550 34013 ft 439 kts 243°
2026-04-25 07:04 34.80815 -121.81098 34016 ft 439 kts 243°
2026-04-25 07:04 34.77975 -121.87712 34018 ft 441 kts 243°
2026-04-25 07:05 34.75123 -121.94339 34022 ft 441 kts 243°
2026-04-25 07:05 34.72275 -122.00947 34021 ft 441 kts 242°
2026-04-25 07:06 34.69419 -122.07559 34018 ft 441 kts 242°
2026-04-25 07:06 34.66557 -122.14173 34021 ft 443 kts 242°
2026-04-25 07:07 34.63703 -122.20754 34026 ft 444 kts 242°
2026-04-25 07:07 34.60820 -122.27392 34026 ft 444 kts 242°
2026-04-25 07:08 34.57932 -122.34025 34028 ft 444 kts 242°
2026-04-25 07:08 34.55530 -122.39533 34025 ft 445 kts 242°
2026-04-25 07:09 34.52630 -122.46173 34030 ft 445 kts 242°
2026-04-25 07:09 34.49727 -122.52807 34033 ft 445 kts 242°
2026-04-25 07:10 34.46820 -122.59435 34028 ft 445 kts 242°
2026-04-25 07:10 34.43905 -122.66069 34033 ft 446 kts 242°
2026-04-25 07:11 34.41000 -122.72669 34029 ft 447 kts 242°
2026-04-25 07:11 34.38069 -122.79314 34035 ft 447 kts 242°
2026-04-25 07:12 34.35133 -122.85959 34032 ft 447 kts 242°
2026-04-25 07:12 34.30743 -122.95870 34039 ft 447 kts 242°
2026-04-25 07:13 34.27832 -123.02519 34038 ft 447 kts 245°
2026-04-25 07:13 34.25923 -123.09653 34038 ft 448 kts 259°
2026-04-25 07:14 34.25781 -123.17202 34052 ft 452 kts 273°
2026-04-25 07:14 34.26550 -123.24778 34039 ft 454 kts 275°
2026-04-25 07:15 34.27429 -123.32332 34045 ft 454 kts 275°
2026-04-25 07:15 34.28281 -123.39842 34045 ft 454 kts 275°
2026-04-25 07:16 34.29110 -123.47423 34045 ft 454 kts 275°
2026-04-25 07:16 34.29921 -123.54980 34048 ft 454 kts 274°
2026-04-25 07:17 34.30729 -123.62553 34045 ft 453 kts 274°
2026-04-25 07:17 34.31529 -123.70087 34050 ft 453 kts 274°
2026-04-25 07:18 34.32327 -123.77632 34045 ft 452 kts 274°
2026-04-25 07:18 34.33119 -123.85175 34048 ft 452 kts 274°
2026-04-25 07:19 34.33905 -123.92710 34051 ft 451 kts 274°
2026-04-25 07:19 34.34688 -124.00255 34050 ft 451 kts 274°
2026-04-25 07:20 34.35463 -124.07771 34050 ft 451 kts 274°
2026-04-25 07:20 34.36235 -124.15299 34053 ft 450 kts 274°
2026-04-25 07:21 34.37001 -124.22822 34062 ft 449 kts 274°
2026-04-25 07:21 34.37754 -124.30255 34053 ft 447 kts 274°
2026-04-25 07:22 34.38504 -124.37708 34053 ft 446 kts 274°
2026-04-25 07:22 34.39250 -124.45176 34056 ft 446 kts 274°
2026-04-25 07:23 34.39992 -124.52649 34053 ft 446 kts 274°
2026-04-25 07:23 34.40729 -124.60105 34054 ft 445 kts 274°
2026-04-25 07:24 34.41459 -124.67548 34054 ft 445 kts 274°
2026-04-25 07:24 34.42181 -124.74951 34065 ft 444 kts 273°
2026-04-25 07:25 34.42899 -124.82358 34058 ft 442 kts 273°
2026-04-25 07:25 34.43611 -124.89758 34059 ft 442 kts 273°
2026-04-25 07:26 34.44319 -124.97161 34061 ft 442 kts 273°
2026-04-25 07:26 34.45022 -125.04563 34062 ft 441 kts 273°
2026-04-25 07:27 34.45716 -125.11906 34061 ft 441 kts 273°
2026-04-25 07:27 34.46409 -125.19305 34062 ft 441 kts 272°
2026-04-25 07:28 34.47097 -125.26685 34065 ft 440 kts 272°
2026-04-25 07:28 34.47779 -125.34063 34066 ft 441 kts 272°
2026-04-25 07:29 34.48458 -125.41453 34064 ft 441 kts 272°
2026-04-25 07:29 34.49134 -125.48847 34068 ft 441 kts 272°
2026-04-25 07:30 34.49801 -125.56201 34065 ft 442 kts 271°
2026-04-25 07:30 34.50469 -125.63623 34078 ft 442 kts 271°
2026-04-25 07:31 34.51135 -125.71059 34076 ft 442 kts 271°
2026-04-25 07:31 34.51794 -125.78482 34078 ft 443 kts 271°
2026-04-25 07:32 34.52447 -125.85880 34079 ft 444 kts 271°
2026-04-25 07:32 34.53100 -125.93334 34069 ft 444 kts 271°
2026-04-25 07:33 34.53748 -126.00778 34068 ft 444 kts 271°
2026-04-25 07:33 34.54392 -126.08237 34084 ft 444 kts 271°
2026-04-25 07:34 34.55027 -126.15643 34076 ft 444 kts 271°
2026-04-25 07:34 34.55662 -126.23100 34074 ft 444 kts 271°
2026-04-25 07:35 34.56293 -126.30567 34077 ft 444 kts 271°
2026-04-25 07:35 34.56916 -126.37987 34071 ft 444 kts 271°
2026-04-25 07:36 34.57536 -126.45442 34075 ft 444 kts 270°
2026-04-25 07:36 34.58153 -126.52906 34080 ft 444 kts 270°
2026-04-25 07:37 34.58766 -126.60371 34079 ft 444 kts 270°
2026-04-25 07:37 34.59373 -126.67829 34081 ft 444 kts 270°
2026-04-25 07:38 34.59973 -126.75253 34100 ft 444 kts 270°
2026-04-25 07:38 34.60571 -126.82717 34086 ft 444 kts 270°
2026-04-25 07:39 34.61165 -126.90189 34077 ft 444 kts 270°
2026-04-25 07:39 34.61756 -126.97670 34088 ft 444 kts 270°
2026-04-25 07:40 34.62340 -127.05132 34085 ft 445 kts 270°
2026-04-25 07:40 34.62918 -127.12570 34085 ft 445 kts 270°
2026-04-25 07:41 34.63494 -127.20038 34086 ft 444 kts 270°
2026-04-25 07:41 34.64065 -127.27510 34090 ft 444 kts 270°
2026-04-25 07:42 34.64633 -127.35002 34089 ft 445 kts 270°
2026-04-25 07:42 34.65196 -127.42496 34090 ft 445 kts 270°
2026-04-25 07:43 34.65755 -127.49986 34090 ft 445 kts 270°
2026-04-25 07:43 34.66310 -127.57503 34089 ft 447 kts 270°
2026-04-25 07:44 34.66862 -127.65024 34101 ft 447 kts 269°
2026-04-25 07:44 34.67410 -127.72554 34110 ft 447 kts 269°
2026-04-25 07:45 34.67950 -127.80057 34095 ft 450 kts 269°
2026-04-25 07:45 34.68492 -127.87645 34098 ft 451 kts 269°
2026-04-25 07:46 34.69032 -127.95250 34093 ft 451 kts 269°
2026-04-25 07:46 34.69566 -128.02877 34099 ft 454 kts 270°
2026-04-25 07:47 34.70099 -128.10544 34112 ft 455 kts 269°
2026-04-25 07:47 34.70629 -128.18211 34099 ft 455 kts 269°
2026-04-25 07:48 34.71151 -128.25849 34102 ft 457 kts 270°
2026-04-25 07:48 34.71672 -128.33566 34102 ft 458 kts 270°
2026-04-25 07:49 34.72190 -128.41283 34105 ft 458 kts 270°
2026-04-25 07:49 34.72704 -128.49012 34108 ft 458 kts 270°
2026-04-25 07:50 34.73211 -128.56731 34111 ft 458 kts 270°
2026-04-25 07:50 34.73714 -128.64459 34105 ft 459 kts 270°
2026-04-25 07:51 34.74210 -128.72158 34108 ft 460 kts 270°
2026-04-25 07:51 34.74706 -128.79927 34111 ft 461 kts 270°
2026-04-25 07:52 34.75197 -128.87693 34108 ft 461 kts 270°
2026-04-25 07:52 34.75683 -128.95465 34111 ft 461 kts 270°
2026-04-25 07:53 34.76165 -129.03250 34130 ft 461 kts 270°
2026-04-25 07:53 34.76639 -129.10997 34114 ft 462 kts 270°
2026-04-25 07:54 34.77113 -129.18814 34114 ft 463 kts 270°
2026-04-25 07:54 34.77582 -129.26642 34112 ft 464 kts 270°
2026-04-25 07:55 34.78047 -129.34468 34119 ft 464 kts 270°
2026-04-25 07:55 34.78507 -129.42315 34116 ft 465 kts 270°
2026-04-25 07:56 34.78960 -129.50122 34121 ft 466 kts 270°
2026-04-25 07:56 34.79412 -129.58000 34128 ft 466 kts 270°
2026-04-25 07:57 34.79859 -129.65887 34113 ft 469 kts 270°
2026-04-25 07:57 34.80303 -129.73806 34112 ft 469 kts 270°
2026-04-25 07:58 34.80743 -129.81733 34133 ft 469 kts 270°
2026-04-25 07:58 34.81177 -129.89673 34127 ft 471 kts 270°
2026-04-25 07:59 34.81605 -129.97580 34121 ft 471 kts 270°
2026-04-25 07:59 34.82032 -130.05545 34126 ft 471 kts 270°
2026-04-25 08:00 34.82453 -130.13525 34130 ft 473 kts 270°
2026-04-25 08:00 34.82800 -130.20185 34129 ft 474 kts 270°
2026-04-25 08:01 34.83214 -130.28193 34128 ft 474 kts 271°
2026-04-25 08:01 34.83622 -130.36218 34133 ft 475 kts 271°
2026-04-25 08:02 34.84026 -130.44242 34129 ft 475 kts 271°
2026-04-25 08:02 34.84425 -130.52280 34130 ft 476 kts 271°
2026-04-25 08:03 34.84816 -130.60270 34127 ft 476 kts 271°
2026-04-25 08:03 34.85205 -130.68343 34127 ft 476 kts 271°
2026-04-25 08:04 34.85589 -130.76395 34132 ft 476 kts 271°
2026-04-25 08:04 34.85966 -130.84415 34132 ft 476 kts 271°
2026-04-25 08:05 34.86339 -130.92472 34138 ft 476 kts 271°
2026-04-25 08:05 34.86707 -131.00543 34138 ft 477 kts 271°
2026-04-25 08:06 34.87070 -131.08632 34137 ft 478 kts 271°
2026-04-25 08:06 34.87426 -131.16667 34138 ft 478 kts 271°
2026-04-25 08:07 34.87780 -131.24763 34139 ft 479 kts 271°
2026-04-25 08:07 34.88128 -131.32861 34137 ft 479 kts 271°
2026-04-25 08:08 34.88469 -131.40932 34140 ft 479 kts 271°
2026-04-25 08:08 34.88806 -131.49031 34140 ft 479 kts 271°
2026-04-25 08:09 34.89139 -131.57144 34146 ft 480 kts 271°
2026-04-25 08:09 34.89467 -131.65276 34149 ft 480 kts 271°
2026-04-25 08:10 34.89789 -131.73408 34148 ft 480 kts 271°
2026-04-25 08:10 34.90106 -131.81546 34148 ft 481 kts 272°
2026-04-25 08:11 34.90419 -131.89694 34151 ft 481 kts 271°
2026-04-25 08:11 34.90723 -131.97776 34151 ft 481 kts 271°
2026-04-25 08:12 34.91024 -132.05933 34152 ft 481 kts 271°
2026-04-25 08:12 34.91320 -132.14074 34154 ft 481 kts 272°
2026-04-25 08:13 34.91610 -132.22229 34154 ft 482 kts 272°
2026-04-25 08:14 34.92033 -132.34398 34154 ft 481 kts 272°
2026-04-25 08:14 34.92311 -132.42567 34159 ft 482 kts 272°
2026-04-25 08:15 34.92582 -132.50720 34162 ft 481 kts 272°
2026-04-25 08:15 34.92849 -132.58902 34162 ft 484 kts 272°
2026-04-25 08:16 34.93110 -132.67082 34168 ft 482 kts 272°
2026-04-25 08:16 34.93364 -132.75217 34166 ft 484 kts 272°
2026-04-25 08:17 34.93615 -132.83406 34164 ft 482 kts 272°
2026-04-25 08:17 34.93859 -132.91571 34170 ft 483 kts 272°
2026-04-25 08:18 34.94099 -132.99786 34166 ft 484 kts 272°
2026-04-25 08:18 34.94333 -133.07969 34167 ft 483 kts 272°
2026-04-25 08:19 34.94561 -133.16114 34167 ft 483 kts 272°
2026-04-25 08:19 34.94784 -133.24306 34169 ft 483 kts 272°
2026-04-25 08:20 34.95001 -133.32485 34176 ft 482 kts 272°
2026-04-25 08:20 34.95213 -133.40663 34176 ft 483 kts 272°
2026-04-25 08:21 34.95419 -133.48855 34177 ft 482 kts 272°
2026-04-25 08:21 34.95618 -133.56958 34185 ft 480 kts 272°
2026-04-25 08:22 34.95813 -133.65106 34178 ft 481 kts 271°
2026-04-25 08:22 34.96002 -133.73237 34176 ft 479 kts 272°
2026-04-25 08:23 34.96185 -133.81376 34182 ft 481 kts 272°
2026-04-25 08:23 34.96364 -133.89523 34180 ft 478 kts 271°
2026-04-25 08:24 34.96535 -133.97621 34184 ft 479 kts 271°
2026-04-25 08:24 34.96702 -134.05746 34185 ft 478 kts 271°
2026-04-25 08:25 34.96863 -134.13822 34184 ft 478 kts 271°